FLOCK 3PP 2

导读

FLOCK 3PP 2是美国于2018年1月12日发射的对地观测微卫星,隶属于Planet Labs公司的Flock卫星星座。该系列卫星采用3U立方星标准设计,主打高分辨率遥感成像,通过星座组网实现全球高频次对地观测,可为农业监测、城市规划、灾害评估、地理测绘等领域提供及时的高清影像数据,是商用小卫星遥感应用的典型代表。

Basic Information
目录编号:
43120
目录名称:
FLOCK 3PP 2
国际标识:
2018-004K
轨道中心:
EARTH
卫星名称:
FLOCK 3PP 2
卫星全名:
--
卫星状态:
已陨落 最后检测时间 2023-08-10
发射日期:
2018-01-12 UTC
国别 :
美国 (US)
星等 :
--
Orbit Information
数据来源 国际轨道数据
星历时间: 2023-08-09T14:27:16+0800
轨道信息已过期1069天
半长轴: 6587.013km
偏心率: 0.0015783
轨道倾角: 97.311°
近地点辐角 273.489°
升交点赤经 302.195°
平近点角 86.460°
近地点: 198.481km
远地点: 219.275km
周期: 88.673分钟
每日圈数: 16.239402
Detailed Information
使用方式:
暂无